Location: Aurora Center
(43.5271°N, 98.5894°W)
Time: 07:46:05
(UTC-05:00)

Envisat - Visible Passes

Search period start: 18 June 2024 00:00
Search period end: 28 June 2024 00:00
Orbit: 762 x 764 km, 98.3° (Epoch: 18 June)

Date Brightness Start Highest point End Pass type
(mag) Time Alt. Az. Time Alt. Az. Time Alt. Az.
18 Jun 5.4 03:36:10 10° NE 03:39:07 15° E 03:42:05 10° SE visible
18 Jun 3.1 05:13:31 10° N 05:18:33 66° WNW 05:23:33 10° SSW visible
19 Jun 3.6 04:36:11 10° NNE 04:41:11 57° E 04:46:09 10° S visible
20 Jun 4.8 03:59:23 10° NE 04:03:36 26° E 04:07:47 10° SSE visible
21 Jun 5.6 03:24:10 10° ENE 03:25:49 11° E 03:27:27 10° ESE visible
21 Jun 3.0 05:00:20 10° NNE 05:05:26 86° WNW 05:10:30 10° SSW visible
22 Jun 4.0 04:23:09 10° NNE 04:28:00 43° E 04:32:47 10° S visible
23 Jun 5.2 03:46:40 10° NE 03:50:21 20° E 03:53:59 10° SE visible
24 Jun 3.2 04:47:12 10° NNE 04:52:17 73° ESE 04:57:20 10° S visible
25 Jun 4.4 04:10:13 10° NNE 04:14:46 33° E 04:19:18 10° SSE visible
26 Jun 5.4 03:34:11 10° NE 03:37:03 15° E 03:39:55 10° SE visible
26 Jun 3.1 05:11:27 10° N 05:16:30 68° WNW 05:21:31 10° SSW visible
27 Jun 3.6 04:34:07 10° NNE 04:39:07 55° E 04:44:04 10° S visible
